When you browse on this site, cookies collect data to enhance your experience and personalize the content and advertising you see.
Visit our Privacy Policy to learn more. By continuing to use the site, you agree to this use of cookies and data.
  • In Portugal
  • List of Countries
  • For 7 days
  • Water Temperature
  • Satellite Maps
  • Weather Map
  • Weather Widgets
  • user-avatar
    Login

    Hourly Weather Marmaris

    Today, 11 December, Tuesday

    Time Temperature Precipitation Wind Pressure Humidity
    00:00 +10°C° 0.2 mm 6 mps 752 mmHg 91%
    01:00 +10°C° 0.2 mm 6 mps 752 mmHg 90%
    02:00 +9°C° 0 mm 6 mps 752 mmHg 87%
    03:00 +9°C° 0.1 mm 5 mps 753 mmHg 87%
    04:00 +9°C° 0.1 mm 5 mps 753 mmHg 87%
    05:00 +8°C° 0.1 mm 4 mps 754 mmHg 87%
    06:00 +9°C° 0 mm 3 mps 754 mmHg 88%
    07:00 +9°C° 0 mm 3 mps 754 mmHg 88%
    08:00 +11°C° 0 mm 1 mps 754 mmHg 87%
    09:00 +12°C° 0.1 mm 2 mps 754 mmHg 82%
    10:00 +12°C° 0.1 mm 2 mps 755 mmHg 76%
    11:00 +13°C° 0.1 mm 2 mps 755 mmHg 71%
    12:00 +13°C° 0.9 mm 2 mps 755 mmHg 72%
    13:00 +13°C° 0.9 mm 2 mps 754 mmHg 73%
    14:00 +12°C° 0 mm 2 mps 754 mmHg 74%
    15:00 +12°C° 0.8 mm 2 mps 754 mmHg 77%
    16:00 +10°C° 0.8 mm 2 mps 754 mmHg 81%
    17:00 +10°C° 0.8 mm 2 mps 754 mmHg 85%
    18:00 +10°C° 0.2 mm 2 mps 754 mmHg 84%
    19:00 +10°C° 0.2 mm 2 mps 754 mmHg 84%
    20:00 +10°C° 0.2 mm 1 mps 754 mmHg 84%
    21:00 +10°C° 0.2 mm 1 mps 754 mmHg 85%
    22:00 +10°C° 0.2 mm 1 mps 754 mmHg 87%
    23:00 +10°C° 0.2 mm 1 mps 754 mmHg 88%

    Tomorrow, 12 December, Wednesday

    Time Temperature Precipitation Wind Pressure Humidity
    00:00 +10°C° 0.4 mm 1 mps 754 mmHg 89%
    01:00 +8°C° 0.4 mm 2 mps 755 mmHg 90%
    02:00 +8°C° 0.4 mm 2 mps 755 mmHg 91%
    03:00 +8°C° 0.4 mm 3 mps 755 mmHg 92%
    04:00 +7°C° 0.4 mm 4 mps 755 mmHg 92%
    05:00 +7°C° 0.4 mm 5 mps 755 mmHg 93%
    06:00 +7°C° 0.1 mm 5 mps 756 mmHg 92%
    07:00 +7°C° 0.1 mm 5 mps 756 mmHg 91%
    08:00 +7°C° 0.1 mm 5 mps 757 mmHg 90%
    09:00 +8°C° 0 mm 5 mps 757 mmHg 82%
    10:00 +9°C° 0 mm 5 mps 758 mmHg 73%
    11:00 +10°C° 0 mm 5 mps 758 mmHg 65%
    12:00 +10°C° 0 mm 5 mps 758 mmHg 62%
    13:00 +12°C° 0 mm 5 mps 759 mmHg 58%
    14:00 +12°C° 0 mm 5 mps 759 mmHg 55%
    15:00 +10°C° 0 mm 5 mps 759 mmHg 60%
    16:00 +9°C° 0 mm 5 mps 759 mmHg 65%
    17:00 +8°C° 0 mm 5 mps 760 mmHg 70%
    18:00 +7°C° 0 mm 4 mps 760 mmHg 72%
    19:00 +6°C° 0 mm 4 mps 760 mmHg 75%
    20:00 +6°C° 0 mm 4 mps 761 mmHg 78%
    21:00 +5°C° 0 mm 4 mps 761 mmHg 79%
    22:00 +5°C° 0 mm 4 mps 761 mmHg 80%
    23:00 +5°C° 0 mm 4 mps 762 mmHg 81%

    Day after tomorrow, 13 December, Thursday

    Time Temperature Precipitation Wind Pressure Humidity
    00:00 +4°C° 0 mm 4 mps 762 mmHg 82%
    01:00 +4°C° 0 mm 3 mps 762 mmHg 82%
    02:00 +4°C° 0 mm 3 mps 762 mmHg 83%
    03:00 +3°C° 0 mm 3 mps 762 mmHg 82%
    04:00 +3°C° 0 mm 3 mps 762 mmHg 82%
    05:00 +3°C° 0 mm 3 mps 762 mmHg 81%
    06:00 +3°C° 0 mm 3 mps 762 mmHg 79%
    07:00 +4°C° 0 mm 3 mps 763 mmHg 76%
    08:00 +5°C° 0 mm 2 mps 763 mmHg 73%
    09:00 +7°C° 0 mm 2 mps 763 mmHg 63%
    10:00 +10°C° 0 mm 1 mps 763 mmHg 52%
    11:00 +12°C° 0 mm 1 mps 763 mmHg 41%
    12:00 +13°C° 0 mm 1 mps 762 mmHg 38%
    13:00 +13°C° 0 mm 1 mps 762 mmHg 35%
    14:00 +14°C° 0 mm 1 mps 761 mmHg 32%
    15:00 +13°C° 0 mm 1 mps 761 mmHg 38%
    16:00 +12°C° 0 mm 1 mps 761 mmHg 43%
    17:00 +11°C° 0 mm 1 mps 761 mmHg 49%
    18:00 +9°C° 0.1 mm 2 mps 761 mmHg 50%
    19:00 +9°C° 0.1 mm 2 mps 761 mmHg 52%
    20:00 +9°C° 0.1 mm 3 mps 762 mmHg 53%
    21:00 +8°C° 0.1 mm 4 mps 761 mmHg 53%
    22:00 +8°C° 0.1 mm 4 mps 761 mmHg 53%
    23:00 +8°C° 0.1 mm 5 mps 761 mmHg 53%

    14 December, Friday

    Time Temperature Precipitation Wind Pressure Humidity
    00:00 +8°C° 0.1 mm 5 mps 761 mmHg 56%
    01:00 +7°C° 0.1 mm 5 mps 761 mmHg 58%
    02:00 +7°C° 0.1 mm 4 mps 761 mmHg 61%
    03:00 +8°C° 0.1 mm 4 mps 761 mmHg 66%
    04:00 +8°C° 0.1 mm 4 mps 760 mmHg 72%
    05:00 +8°C° 0.1 mm 4 mps 760 mmHg 78%
    06:00 +10°C° 0.2 mm 4 mps 761 mmHg 80%
    07:00 +10°C° 0.2 mm 4 mps 761 mmHg 82%
    08:00 +10°C° 0.2 mm 3 mps 761 mmHg 84%
    09:00 +11°C° 0.1 mm 3 mps 761 mmHg 81%
    10:00 +13°C° 0.1 mm 3 mps 762 mmHg 78%
    11:00 +14°C° 0.1 mm 3 mps 762 mmHg 75%
    12:00 +14°C° 0.1 mm 3 mps 761 mmHg 74%
    13:00 +16°C° 0.1 mm 3 mps 761 mmHg 72%
    14:00 +16°C° 0.1 mm 3 mps 761 mmHg 71%
    15:00 +14°C° 0 mm 3 mps 761 mmHg 75%
    16:00 +13°C° 0 mm 3 mps 761 mmHg 79%
    17:00 +13°C° 0 mm 2 mps 761 mmHg 84%
    18:00 +12°C° 0 mm 3 mps 761 mmHg 84%
    19:00 +12°C° 0 mm 3 mps 761 mmHg 84%
    20:00 +11°C° 0 mm 3 mps 762 mmHg 84%
    21:00 +11°C° 0 mm 3 mps 762 mmHg 83%
    22:00 +11°C° 0 mm 3 mps 762 mmHg 82%
    23:00 +10°C° 0 mm 4 mps 762 mmHg 81%

    15 December, Saturday

    Time Temperature Precipitation Wind Pressure Humidity
    00:00 +11°C° 0.1 mm 4 mps 762 mmHg 80%
    01:00 +11°C° 0.1 mm 4 mps 761 mmHg 78%
    02:00 +11°C° 0.1 mm 4 mps 761 mmHg 77%
    03:00 +11°C° 0.1 mm 4 mps 761 mmHg 76%
    04:00 +11°C° 0.1 mm 4 mps 761 mmHg 75%
    05:00 +11°C° 0.1 mm 4 mps 761 mmHg 74%
    06:00 +11°C° 0.2 mm 4 mps 761 mmHg 75%
    07:00 +11°C° 0.2 mm 4 mps 761 mmHg 75%
    08:00 +11°C° 0.2 mm 4 mps 761 mmHg 76%
    09:00 +13°C° 0.2 mm 4 mps 761 mmHg 71%
    10:00 +15°C° 0.2 mm 5 mps 761 mmHg 66%
    11:00 +17°C° 0.2 mm 5 mps 761 mmHg 61%
    12:00 +17°C° 0.2 mm 5 mps 760 mmHg 60%
    13:00 +19°C° 0.2 mm 5 mps 760 mmHg 58%
    14:00 +19°C° 0.2 mm 5 mps 759 mmHg 56%
    15:00 +16°C° 0.3 mm 5 mps 759 mmHg 63%
    16:00 +15°C° 0.3 mm 5 mps 759 mmHg 70%
    17:00 +13°C° 0.3 mm 5 mps 759 mmHg 76%
    18:00 +13°C° 0.3 mm 5 mps 759 mmHg 77%
    19:00 +13°C° 0.3 mm 5 mps 759 mmHg 78%
    20:00 +13°C° 0.3 mm 5 mps 759 mmHg 78%
    21:00 +13°C° 0.9 mm 5 mps 759 mmHg 77%
    22:00 +13°C° 0.9 mm 5 mps 759 mmHg 77%
    23:00 +13°C° 0.9 mm 5 mps 758 mmHg 76%

    16 December, Sunday

    Time Temperature Precipitation Wind Pressure Humidity
    00:00 +13°C° 1.2 mm 5 mps 758 mmHg 76%
    01:00 +12°C° 1.2 mm 5 mps 758 mmHg 77%
    02:00 +12°C° 1.2 mm 5 mps 758 mmHg 78%
    03:00 +12°C° 1.7 mm 5 mps 757 mmHg 80%
    04:00 +12°C° 1.7 mm 5 mps 757 mmHg 83%
    05:00 +12°C° 1.7 mm 5 mps 757 mmHg 86%
    06:00 +12°C° 1.6 mm 5 mps 757 mmHg 86%
    07:00 +12°C° 1.6 mm 5 mps 757 mmHg 87%
    08:00 +12°C° 1.6 mm 5 mps 757 mmHg 87%
    09:00 +12°C° 1.4 mm 5 mps 757 mmHg 84%
    10:00 +13°C° 1.4 mm 5 mps 757 mmHg 81%
    11:00 +14°C° 1.4 mm 5 mps 757 mmHg 78%
    12:00 +14°C° 1.4 mm 5 mps 756 mmHg 78%
    13:00 +14°C° 1.4 mm 4 mps 756 mmHg 78%
    14:00 +15°C° 1.4 mm 4 mps 756 mmHg 78%
    15:00 +14°C° 0.5 mm 4 mps 756 mmHg 80%
    16:00 +14°C° 0.5 mm 4 mps 756 mmHg 82%
    17:00 +13°C° 0.5 mm 4 mps 756 mmHg 84%
    18:00 +13°C° 0.3 mm 4 mps 757 mmHg 84%
    19:00 +12°C° 0.3 mm 4 mps 757 mmHg 84%
    20:00 +12°C° 0.3 mm 4 mps 757 mmHg 84%
    21:00 +12°C° 0.3 mm 4 mps 758 mmHg 84%
    22:00 +11°C° 0.3 mm 3 mps 758 mmHg 83%
    23:00 +11°C° 0.3 mm 3 mps 758 mmHg 82%
    Show more